CZ-2C R/B (28480 NORAD) Tracking and Keplerian Element Data

This shows tracking and keplerian element data for the satellite.

Feedback or suggestion? Click here.




ElementValue
Catalog28480
NameCZ-2C R/B
Epoch Orbit5161
Epoch Day34.7602656
Epoch Year2025
RAAN329.7894
Inclination98.1872
Eccentricity0.013873
Argument of Perigee254.4426
Mean Anonmoly104.1405
Mean Motion14.26716409
Decay Rate4.33E-06
L11 28480U 04046B 25034.76026560 .00000433 00000+0 17745-3 0 9998
L22 28480 98.1872 329.7894 0138730 254.4426 104.1405 14.26716409 51618



Live tracking and technical data element details for CZ-2C R/B (NORAD 28480). CZ-2C R/B can be tracked NOW for your location showing map with azimuth and elevation plus other details from your city location.







IsCatalogInMostPopularTable: catalog: 28480, numindb: 628
Update: records affected: 1



GetName: 28480 CZ-2C R/B

Hit Count: updated at: Sat, 24 May 2025 17:25:06 GMT